TimeCDT,TemperatureF,Dew PointF,Humidity,Sea Level PressureIn,VisibilityMPH,Wind Direction,Wind SpeedMPH,Gust SpeedMPH,PrecipitationIn,Events,Conditions,WindDirDegrees,DateUTC
12:15 AM,57.2,57.2,100,30.16,5.0,Calm,Calm,-,N/A,,Clear,0,2012-10-05 05:15:00
12:35 AM,57.2,57.2,100,30.15,5.0,Calm,Calm,-,N/A,,Clear,0,2012-10-05 05:35:00
12:55 AM,57.2,57.2,100,30.15,5.0,Calm,Calm,-,N/A,,Clear,0,2012-10-05 05:55:00
1:15 AM,57.2,57.2,100,30.15,5.0,Calm,Calm,-,N/A,,Clear,0,2012-10-05 06:15:00
1:35 AM,57.2,57.2,100,30.15,5.0,Calm,Calm,-,N/A,,Mostly Cloudy,0,2012-10-05 06:35:00
1:55 AM,57.2,57.2,100,30.15,5.0,Calm,Calm,-,N/A,,Scattered Clouds,0,2012-10-05 06:55:00
2:15 AM,57.2,57.2,100,30.15,5.0,Calm,Calm,-,N/A,,Clear,0,2012-10-05 07:15:00
2:35 AM,57.2,57.2,100,30.15,5.0,Calm,Calm,-,N/A,,Partly Cloudy,0,2012-10-05 07:35:00
2:55 AM,57.2,57.2,100,30.14,5.0,Calm,Calm,-,N/A,,Mostly Cloudy,0,2012-10-05 07:55:00
3:15 AM,57.2,57.2,100,30.13,5.0,Calm,Calm,-,N/A,,Mostly Cloudy,0,2012-10-05 08:15:00
3:35 AM,59.0,57.2,94,30.12,5.0,Calm,Calm,-,N/A,,Mostly Cloudy,0,2012-10-05 08:35:00
3:55 AM,59.0,57.2,94,30.11,5.0,Calm,Calm,-,N/A,,Mostly Cloudy,0,2012-10-05 08:55:00
4:15 AM,59.0,57.2,94,30.11,5.0,Calm,Calm,-,N/A,,Overcast,0,2012-10-05 09:15:00
4:35 AM,60.8,59.0,94,30.11,6.0,Calm,Calm,-,N/A,,Mostly Cloudy,0,2012-10-05 09:35:00
4:55 AM,60.8,59.0,94,30.11,7.0,Calm,Calm,-,N/A,,Scattered Clouds,0,2012-10-05 09:55:00
5:15 AM,60.8,59.0,94,30.11,6.0,Calm,Calm,-,N/A,,Mostly Cloudy,0,2012-10-05 10:15:00
5:35 AM,60.8,59.0,94,30.12,6.0,Calm,Calm,-,N/A,,Scattered Clouds,0,2012-10-05 10:35:00
5:55 AM,60.8,57.2,88,30.12,5.0,Calm,Calm,-,N/A,,Partly Cloudy,0,2012-10-05 10:55:00
6:15 AM,59.0,57.2,94,30.12,5.0,Calm,Calm,-,N/A,,Scattered Clouds,0,2012-10-05 11:15:00
6:35 AM,59.0,57.2,94,30.11,5.0,Calm,Calm,-,N/A,,Partly Cloudy,0,2012-10-05 11:35:00
6:55 AM,59.0,57.2,94,30.11,5.0,Calm,Calm,-,N/A,,Partly Cloudy,0,2012-10-05 11:55:00
7:15 AM,59.0,57.2,94,30.11,4.0,Calm,Calm,-,N/A,,Partly Cloudy,0,2012-10-05 12:15:00
7:35 AM,59.0,57.2,94,30.11,4.0,Calm,Calm,-,N/A,,Partly Cloudy,0,2012-10-05 12:35:00
7:55 AM,60.8,59.0,94,30.11,6.0,Calm,Calm,-,N/A,,Partly Cloudy,0,2012-10-05 12:55:00
8:15 AM,60.8,59.0,94,30.10,5.0,Calm,Calm,-,N/A,,Partly Cloudy,0,2012-10-05 13:15:00
8:35 AM,62.6,59.0,88,30.11,5.0,Calm,Calm,-,N/A,,Scattered Clouds,0,2012-10-05 13:35:00
8:55 AM,62.6,60.8,94,30.09,5.0,Calm,Calm,-,N/A,,Partly Cloudy,0,2012-10-05 13:55:00
9:15 AM,64.4,62.6,94,30.09,5.0,Calm,Calm,-,N/A,,Partly Cloudy,0,2012-10-05 14:15:00
9:35 AM,66.2,62.6,88,30.09,5.0,Calm,Calm,-,N/A,,Haze,0,2012-10-05 14:35:00
9:55 AM,68.0,62.6,83,30.08,6.0,Calm,Calm,-,N/A,,Haze,0,2012-10-05 14:55:00
10:15 AM,71.6,62.6,73,30.08,7.0,Calm,Calm,-,N/A,,Scattered Clouds,0,2012-10-05 15:15:00
10:35 AM,71.6,64.4,78,30.07,7.0,Calm,Calm,-,N/A,,Partly Cloudy,0,2012-10-05 15:35:00
10:55 AM,69.8,64.4,83,30.05,7.0,Calm,Calm,-,N/A,Thunderstorm,Scattered Clouds,0,2012-10-05 15:55:00
11:35 AM,69.8,66.2,88,30.05,8.0,Calm,Calm,-,N/A,Thunderstorm,Mostly Cloudy,0,2012-10-05 16:35:00
11:55 AM,69.8,64.4,83,30.06,7.0,Calm,Calm,-,N/A,Thunderstorm,Thunderstorm,0,2012-10-05 16:55:00
12:15 PM,68.0,64.4,88,30.07,6.0,WNW,12.7,21.9,N/A,Thunderstorm,Mostly Cloudy,300,2012-10-05 17:15:00
12:35 PM,68.0,64.4,88,30.07,7.0,Calm,Calm,-,N/A,Thunderstorm,Thunderstorm,0,2012-10-05 17:35:00
12:55 PM,66.2,64.4,94,30.04,6.0,Calm,Calm,-,N/A,Thunderstorm,Unknown,0,2012-10-05 17:55:00
1:35 PM,66.2,64.4,94,30.04,3.0,NE,3.5,21.9,0.03,Thunderstorm,Mostly Cloudy,50,2012-10-05 18:35:00
1:55 PM,66.2,64.4,94,30.01,9.0,NW,11.5,-,0.03,Thunderstorm,Thunderstorm,320,2012-10-05 18:55:00
2:15 PM,64.4,64.4,100,30.02,1.0,Calm,Calm,-,0.44,Rain-Thunderstorm,Thunderstorms and Rain,0,2012-10-05 19:15:00
2:35 PM,64.4,64.4,100,30.01,2.5,Calm,Calm,-,0.47,Rain-Thunderstorm,Light Rain,0,2012-10-05 19:35:00
2:55 PM,64.4,64.4,100,30.00,3.0,Calm,Calm,-,0.48,Thunderstorm,Mostly Cloudy,0,2012-10-05 19:55:00
3:15 PM,62.6,60.8,94,30.00,2.0,North,5.8,-,0.02,Rain-Thunderstorm,Rain,350,2012-10-05 20:15:00
3:35 PM,60.8,57.2,88,30.01,5.0,NW,5.8,-,0.05,Rain-Thunderstorm,Rain,320,2012-10-05 20:35:00
3:55 PM,59.0,57.2,94,30.04,1.2,NW,13.8,19.6,0.19,Rain,Heavy Rain,310,2012-10-05 20:55:00
4:15 PM,57.2,55.4,94,30.06,1.5,NW,10.4,-,0.09,Rain-Thunderstorm,Thunderstorms and Rain,320,2012-10-05 21:15:00
4:35 PM,57.2,53.6,88,30.05,5.0,NNW,4.6,-,0.11,Thunderstorm,Overcast,340,2012-10-05 21:35:00
4:55 PM,55.4,53.6,94,30.06,10.0,NNW,5.8,-,0.11,Thunderstorm,Overcast,340,2012-10-05 21:55:00
5:15 PM,55.4,51.8,88,30.07,10.0,NNW,6.9,-,N/A,,Overcast,330,2012-10-05 22:15:00
5:35 PM,53.6,51.8,94,30.09,8.0,NNW,10.4,16.1,N/A,,Overcast,330,2012-10-05 22:35:00
5:55 PM,53.6,50.0,88,30.10,10.0,North,3.5,-,N/A,,Overcast,350,2012-10-05 22:55:00
6:15 PM,53.6,50.0,88,30.11,10.0,Calm,Calm,-,N/A,,Overcast,0,2012-10-05 23:15:00
6:35 PM,53.6,48.2,82,30.12,10.0,NNW,5.8,-,N/A,,Overcast,330,2012-10-05 23:35:00
6:55 PM,51.8,48.2,88,30.13,10.0,NNW,4.6,-,N/A,,Overcast,340,2012-10-05 23:55:00
7:15 PM,51.8,48.2,88,30.13,10.0,North,3.5,-,N/A,,Overcast,350,2012-10-06 00:15:00
7:35 PM,51.8,48.2,88,30.14,10.0,NNW,8.1,-,N/A,,Overcast,330,2012-10-06 00:35:00
7:55 PM,51.8,46.4,82,30.15,10.0,North,5.8,-,N/A,,Overcast,360,2012-10-06 00:55:00
8:15 PM,51.8,46.4,82,30.16,10.0,NNW,5.8,-,N/A,,Overcast,340,2012-10-06 01:15:00
8:35 PM,51.8,46.4,82,30.17,10.0,North,4.6,-,N/A,,Overcast,360,2012-10-06 01:35:00
8:55 PM,51.8,46.4,82,30.17,10.0,NNW,4.6,-,N/A,,Overcast,340,2012-10-06 01:55:00
9:15 PM,51.8,46.4,82,30.19,10.0,NNW,5.8,-,N/A,,Overcast,340,2012-10-06 02:15:00
9:35 PM,50.0,44.6,82,30.20,10.0,NNW,5.8,-,N/A,,Overcast,330,2012-10-06 02:35:00
9:55 PM,48.2,44.6,87,30.21,10.0,NNW,9.2,-,N/A,,Overcast,340,2012-10-06 02:55:00
10:35 PM,48.2,42.8,82,30.22,10.0,North,6.9,-,N/A,,Mostly Cloudy,360,2012-10-06 03:35:00
10:55 PM,48.2,42.8,82,30.21,10.0,NNW,3.5,-,N/A,,Mostly Cloudy,340,2012-10-06 03:55:00
11:15 PM,48.2,41.0,76,30.21,10.0,NNW,4.6,-,N/A,,Overcast,340,2012-10-06 04:15:00
11:35 PM,48.2,41.0,76,30.21,10.0,North,5.8,-,N/A,,Overcast,350,2012-10-06 04:35:00
11:55 PM,48.2,39.2,71,30.21,10.0,NNW,6.9,-,N/A,,Mostly Cloudy,340,2012-10-06 04:55:00